• In Norway
  • List of Countries
  • For 7 days
  • Water Temperature
  • Satellite Maps
  • Weather Map
  • Weather Widgets
  • user-avatar
    Login

    Hourly Weather Kaprun

    Today, 14 November, Wednesday

    Time Temperature Precipitation Wind Pressure Humidity
    00:00 +1°C° 0 mm 1 mps 604 mmHg 96%
    01:00 +1°C° 0 mm 1 mps 603 mmHg 96%
    02:00 0°C° 0 mm 1 mps 603 mmHg 95%
    03:00 0°C° 0 mm 1 mps 603 mmHg 95%
    04:00 -1°C° 0 mm 1 mps 602 mmHg 95%
    05:00 -1°C° 0 mm 1 mps 602 mmHg 93%
    06:00 -1°C° 0 mm 1 mps 602 mmHg 92%
    07:00 -2°C° 0 mm 1 mps 602 mmHg 91%
    08:00 +1°C° 0 mm 1 mps 603 mmHg 83%
    09:00 +2°C° 0 mm 0 mps 604 mmHg 76%
    10:00 +4°C° 0 mm 0 mps 605 mmHg 69%
    11:00 +5°C° 0 mm 0 mps 605 mmHg 65%
    12:00 +5°C° 0 mm 0 mps 605 mmHg 61%
    13:00 +7°C° 0 mm 1 mps 605 mmHg 57%
    14:00 +5°C° 0 mm 0 mps 604 mmHg 65%
    15:00 +4°C° 0 mm 0 mps 603 mmHg 72%
    16:00 +2°C° 0 mm 0 mps 602 mmHg 79%
    17:00 +1°C° 0 mm 0 mps 602 mmHg 81%
    18:00 +1°C° 0 mm 1 mps 602 mmHg 83%
    19:00 0°C° 0 mm 1 mps 601 mmHg 85%
    20:00 0°C° 0 mm 1 mps 601 mmHg 82%
    21:00 0°C° 0 mm 1 mps 601 mmHg 78%
    22:00 0°C° 0 mm 1 mps 601 mmHg 75%
    23:00 0°C° 0 mm 1 mps 601 mmHg 71%

    Tomorrow, 15 November, Thursday

    Time Temperature Precipitation Wind Pressure Humidity
    00:00 0°C° 0 mm 1 mps 601 mmHg 67%
    01:00 -1°C° 0 mm 1 mps 601 mmHg 62%
    02:00 -1°C° 0 mm 1 mps 601 mmHg 60%
    03:00 -1°C° 0 mm 1 mps 600 mmHg 59%
    04:00 -1°C° 0 mm 1 mps 600 mmHg 57%
    05:00 -1°C° 0 mm 1 mps 600 mmHg 55%
    06:00 -1°C° 0 mm 1 mps 600 mmHg 54%
    07:00 -1°C° 0 mm 1 mps 600 mmHg 53%
    08:00 +1°C° 0 mm 1 mps 601 mmHg 49%
    09:00 +3°C° 0 mm 0 mps 602 mmHg 45%
    10:00 +5°C° 0 mm 0 mps 603 mmHg 41%
    11:00 +6°C° 0 mm 0 mps 603 mmHg 40%
    12:00 +7°C° 0 mm 1 mps 603 mmHg 39%
    13:00 +8°C° 0 mm 1 mps 603 mmHg 38%
    14:00 +6°C° 0 mm 1 mps 602 mmHg 47%
    15:00 +4°C° 0 mm 0 mps 601 mmHg 57%
    16:00 +2°C° 0 mm 0 mps 600 mmHg 66%
    17:00 +1°C° 0 mm 0 mps 600 mmHg 68%
    18:00 0°C° 0 mm 0 mps 600 mmHg 70%
    19:00 -1°C° 0 mm 0 mps 600 mmHg 72%
    20:00 -1°C° 0 mm 0 mps 600 mmHg 70%
    21:00 0°C° 0 mm 1 mps 600 mmHg 68%
    22:00 0°C° 0 mm 1 mps 600 mmHg 66%
    23:00 0°C° 0 mm 1 mps 600 mmHg 65%

    Day after tomorrow, 16 November, Friday

    Time Temperature Precipitation Wind Pressure Humidity
    00:00 0°C° 0 mm 1 mps 600 mmHg 63%
    01:00 -1°C° 0 mm 1 mps 600 mmHg 62%
    02:00 -1°C° 0 mm 1 mps 600 mmHg 60%
    03:00 -1°C° 0 mm 1 mps 600 mmHg 59%
    04:00 -1°C° 0 mm 1 mps 600 mmHg 58%
    05:00 -2°C° 0 mm 1 mps 600 mmHg 57%
    06:00 -2°C° 0 mm 1 mps 600 mmHg 57%
    07:00 -2°C° 0 mm 1 mps 600 mmHg 57%
    08:00 0°C° 0 mm 1 mps 601 mmHg 53%
    09:00 +1°C° 0 mm 1 mps 601 mmHg 50%
    10:00 +3°C° 0 mm 1 mps 602 mmHg 47%
    11:00 +4°C° 0 mm 1 mps 602 mmHg 47%
    12:00 +4°C° 0 mm 1 mps 602 mmHg 47%
    13:00 +3°C° 0 mm 2 mps 602 mmHg 47%
    14:00 +3°C° 0 mm 1 mps 601 mmHg 55%
    15:00 +1°C° 0 mm 1 mps 601 mmHg 64%
    16:00 0°C° 0 mm 1 mps 600 mmHg 72%
    17:00 -1°C° 0 mm 1 mps 600 mmHg 77%
    18:00 -2°C° 0 mm 1 mps 600 mmHg 82%
    19:00 -4°C° 0 mm 1 mps 599 mmHg 87%
    20:00 -4°C° 0 mm 1 mps 599 mmHg 87%
    21:00 -4°C° 0 mm 1 mps 599 mmHg 87%
    22:00 -4°C° 0 mm 1 mps 599 mmHg 87%
    23:00 -4°C° 0 mm 1 mps 599 mmHg 86%

    17 November, Saturday

    Time Temperature Precipitation Wind Pressure Humidity
    00:00 -6°C° 0 mm 2 mps 599 mmHg 86%
    01:00 -6°C° 0 mm 2 mps 599 mmHg 85%
    02:00 -7°C° 0 mm 2 mps 599 mmHg 83%
    03:00 -7°C° 0 mm 2 mps 599 mmHg 82%
    04:00 -7°C° 0 mm 2 mps 599 mmHg 80%
    05:00 -7°C° 0 mm 2 mps 599 mmHg 78%
    06:00 -7°C° 0 mm 2 mps 599 mmHg 76%
    07:00 -7°C° 0 mm 2 mps 599 mmHg 73%
    08:00 -6°C° 0 mm 2 mps 599 mmHg 65%
    09:00 -5°C° 0 mm 2 mps 600 mmHg 57%
    10:00 -3°C° 0 mm 2 mps 601 mmHg 49%
    11:00 -2°C° 0 mm 2 mps 601 mmHg 45%
    12:00 -1°C° 0 mm 2 mps 601 mmHg 42%
    13:00 +1°C° 0 mm 2 mps 601 mmHg 38%
    14:00 -1°C° 0 mm 2 mps 600 mmHg 43%
    15:00 -2°C° 0 mm 2 mps 600 mmHg 48%
    16:00 -1°C° 0 mm 1 mps 599 mmHg 53%
    17:00 -2°C° 0 mm 1 mps 599 mmHg 57%
    18:00 -3°C° 0 mm 1 mps 598 mmHg 61%
    19:00 -6°C° 0 mm 1 mps 598 mmHg 65%
    20:00 -7°C° 0 mm 2 mps 598 mmHg 65%
    21:00 -7°C° 0 mm 2 mps 598 mmHg 65%
    22:00 -7°C° 0 mm 2 mps 598 mmHg 65%
    23:00 -8°C° 0 mm 2 mps 598 mmHg 63%

    18 November, Sunday

    Time Temperature Precipitation Wind Pressure Humidity
    00:00 -8°C° 0 mm 2 mps 597 mmHg 62%
    01:00 -8°C° 0 mm 2 mps 597 mmHg 60%
    02:00 -8°C° 0 mm 2 mps 597 mmHg 60%
    03:00 -8°C° 0 mm 2 mps 597 mmHg 60%
    04:00 -9°C° 0 mm 2 mps 596 mmHg 60%
    05:00 -9°C° 0 mm 2 mps 596 mmHg 62%
    06:00 -9°C° 0 mm 2 mps 596 mmHg 64%
    07:00 -9°C° 0 mm 2 mps 596 mmHg 66%
    08:00 -7°C° 0 mm 2 mps 597 mmHg 61%
    09:00 -6°C° 0 mm 2 mps 597 mmHg 55%
    10:00 -4°C° 0 mm 2 mps 598 mmHg 50%
    11:00 -3°C° 0 mm 2 mps 598 mmHg 47%
    12:00 -2°C° 0 mm 2 mps 598 mmHg 44%
    13:00 -1°C° 0 mm 2 mps 598 mmHg 40%
    14:00 -2°C° 0 mm 2 mps 598 mmHg 45%
    15:00 -3°C° 0 mm 2 mps 597 mmHg 49%
    16:00 -4°C° 0 mm 2 mps 596 mmHg 54%
    17:00 -5°C° 0 mm 2 mps 596 mmHg 57%
    18:00 -6°C° 0 mm 2 mps 596 mmHg 59%
    19:00 -7°C° 0 mm 2 mps 595 mmHg 62%
    20:00 -7°C° 0 mm 2 mps 595 mmHg 59%
    21:00 -7°C° 0 mm 2 mps 595 mmHg 56%
    22:00 -6°C° 0 mm 1 mps 595 mmHg 53%
    23:00 -6°C° 0 mm 1 mps 595 mmHg 50%

    19 November, Monday

    Time Temperature Precipitation Wind Pressure Humidity
    00:00 -6°C° 0 mm 1 mps 595 mmHg 47%
    01:00 -7°C° 0 mm 1 mps 594 mmHg 45%
    02:00 -7°C° 0 mm 1 mps 594 mmHg 43%
    03:00 -7°C° 0 mm 1 mps 594 mmHg 41%
    04:00 -7°C° 0 mm 1 mps 593 mmHg 39%
    05:00 -7°C° 0 mm 1 mps 593 mmHg 37%
    06:00 -7°C° 0 mm 1 mps 593 mmHg 36%
    07:00 -7°C° 0 mm 1 mps 593 mmHg 34%
    08:00 -4°C° 0 mm 1 mps 594 mmHg 31%
    09:00 -2°C° 0 mm 1 mps 595 mmHg 28%
    10:00 0°C° 0 mm 1 mps 595 mmHg 25%
    11:00 0°C° 0 mm 1 mps 595 mmHg 26%
    12:00 +1°C° 0 mm 1 mps 595 mmHg 27%
    13:00 -1°C° 0 mm 2 mps 595 mmHg 28%
    14:00 -2°C° 0 mm 2 mps 595 mmHg 36%
    15:00 -3°C° 0 mm 2 mps 594 mmHg 45%
    16:00 -5°C° 0 mm 2 mps 593 mmHg 54%
    17:00 -6°C° 0 mm 2 mps 593 mmHg 61%
    18:00 -7°C° 0 mm 2 mps 593 mmHg 69%
    19:00 -7°C° 0 mm 1 mps 593 mmHg 76%
    20:00 -8°C° 0 mm 1 mps 593 mmHg 78%
    21:00 -8°C° 0 mm 1 mps 593 mmHg 79%
    22:00 -8°C° 0 mm 1 mps 593 mmHg 81%
    23:00 -8°C° 0 mm 1 mps 593 mmHg 80%
    Show more